Simultaneous Nadir Overpasses (SNOs) Predictions

Prediction of SNOs between GOES-16 and AQUA Satellite Orbit:

Table of predicted SNOs for the next 14.0 days since TLE Epoch: 2/25/2023
Index Date Time (GOES-16) GOES-16 Lat,Lon AQUA Lat,Lon Distance(km) Time Diff (sec)
1 02/26/2023 18:34:08 0.07, -75.19 0.75, -71.99 363.80 80
2 02/27/2023 06:55:05 -0.07, -75.20 0.30, -77.07 212.47 80
3 03/01/2023 06:39:00 -0.06, -75.21 -0.36, -73.80 160.55 80
4 03/01/2023 19:00:05 0.06, -75.21 -0.74, -78.90 420.58 80
5 03/03/2023 18:46:40 0.05, -75.23 -0.02, -75.64 46.43 80
6 03/05/2023 18:35:54 0.04, -75.25 0.68, -72.36 328.82 80
7 03/06/2023 06:56:50 -0.04, -75.26 0.40, -77.43 246.35 80
8 03/08/2023 06:40:43 -0.04, -75.29 -0.30, -74.16 130.03 80
9 03/08/2023 19:04:27 0.03, -75.30 -0.83, -79.25 450.37 80
10 03/10/2023 18:51:00 0.03, -75.34 -0.08, -75.98 73.09 80
